Location: Newark
(7.1028°S, 35.3258°W)
Time: 14:40:24
(UTC+00:00)

Vanguard 3 - Pass Details

Date: 24 February 2020
Orbit: 508 x 3263 km, 33.4° (Epoch: 04 April)

Event Time Altitude Azimuth Distance (km) Brightness Sun altitude
Rises 04:51:53 0° 226° (SW) 5,008 - -51.9°
Reaches altitude 10° 04:56:27 10° 215° (SW) 3,494 - -50.9°
Maximum altitude 05:03:11 27° 160° (SSE) 1,753 - -49.4°
Drops below altitude 10° 05:07:37 10° 101° (ESE) 2,239 - -48.4°
Exits shadow 05:09:51 - 88° (E) 2,937 10.6 -47.9°
Sets 05:09:53 0° 88° (E) 2,947 10.6 -47.9°
